When you browse on this site, cookies collect data to enhance your experience and personalize the content and advertising you see.
Visit our Privacy Policy to learn more. By continuing to use the site, you agree to this use of cookies and data.
  • In Spain
  • List of Countries
  • For 7 days
  • Water Temperature
  • Weather Map
  • Weather Widgets
  • user-avatar
    Login

    Hourly Weather Djelfa

    Today, 19 October, Saturday

    Time Temperature Precipitation Wind Pressure Humidity
    00:00 +19°C° 0 mm 2 mps 666 mmHg 50%
    01:00 +18°C° 0 mm 3 mps 665 mmHg 53%
    02:00 +18°C° 0 mm 3 mps 665 mmHg 55%
    03:00 +17°C° 0 mm 4 mps 665 mmHg 58%
    04:00 +17°C° 0 mm 3 mps 664 mmHg 59%
    05:00 +17°C° 0 mm 3 mps 664 mmHg 60%
    06:00 +16°C° 0 mm 3 mps 664 mmHg 61%
    07:00 +18°C° 0 mm 3 mps 665 mmHg 54%
    08:00 +20°C° 0 mm 4 mps 666 mmHg 47%
    09:00 +22°C° 0 mm 5 mps 667 mmHg 40%
    10:00 +23°C° 0 mm 5 mps 666 mmHg 36%
    11:00 +26°C° 0 mm 5 mps 666 mmHg 32%
    12:00 +27°C° 0 mm 6 mps 666 mmHg 29%
    13:00 +27°C° 0 mm 6 mps 666 mmHg 28%
    14:00 +27°C° 0 mm 6 mps 665 mmHg 27%
    15:00 +27°C° 0 mm 6 mps 665 mmHg 27%
    16:00 +26°C° 0 mm 6 mps 665 mmHg 29%
    17:00 +24°C° 0 mm 6 mps 665 mmHg 32%
    18:00 +23°C° 0 mm 6 mps 665 mmHg 34%
    19:00 +23°C° 0 mm 6 mps 665 mmHg 37%
    20:00 +22°C° 0 mm 7 mps 665 mmHg 39%
    21:00 +21°C° 0 mm 7 mps 665 mmHg 42%
    22:00 +21°C° 0 mm 7 mps 665 mmHg 44%
    23:00 +20°C° 0 mm 7 mps 665 mmHg 46%

    Tomorrow, 20 October, Sunday

    Time Temperature Precipitation Wind Pressure Humidity
    00:00 +18°C° 0 mm 7 mps 664 mmHg 48%
    01:00 +18°C° 0 mm 7 mps 664 mmHg 49%
    02:00 +17°C° 0 mm 7 mps 664 mmHg 50%
    03:00 +17°C° 0 mm 7 mps 664 mmHg 51%
    04:00 +17°C° 0 mm 7 mps 664 mmHg 51%
    05:00 +16°C° 0 mm 7 mps 664 mmHg 51%
    06:00 +16°C° 0 mm 7 mps 664 mmHg 52%
    07:00 +17°C° 0 mm 7 mps 664 mmHg 48%
    08:00 +18°C° 0 mm 7 mps 665 mmHg 44%
    09:00 +21°C° 0 mm 8 mps 666 mmHg 40%
    10:00 +22°C° 0 mm 8 mps 665 mmHg 38%
    11:00 +23°C° 0 mm 8 mps 665 mmHg 35%
    12:00 +24°C° 0 mm 8 mps 665 mmHg 33%
    13:00 +23°C° 0 mm 8 mps 665 mmHg 32%
    14:00 +23°C° 0 mm 7 mps 665 mmHg 32%
    15:00 +23°C° 0 mm 7 mps 664 mmHg 31%
    16:00 +22°C° 0 mm 6 mps 664 mmHg 34%
    17:00 +21°C° 0 mm 6 mps 664 mmHg 36%
    18:00 +21°C° 0 mm 5 mps 664 mmHg 38%
    19:00 +20°C° 0 mm 5 mps 664 mmHg 40%
    20:00 +20°C° 0 mm 5 mps 665 mmHg 43%
    21:00 +19°C° 0 mm 6 mps 665 mmHg 45%
    22:00 +19°C° 0 mm 6 mps 665 mmHg 47%
    23:00 +17°C° 0 mm 6 mps 664 mmHg 49%

    Day after tomorrow, 21 October, Monday

    Time Temperature Precipitation Wind Pressure Humidity
    00:00 +17°C° 0 mm 6 mps 664 mmHg 51%
    01:00 +16°C° 0 mm 5 mps 664 mmHg 52%
    02:00 +16°C° 0 mm 5 mps 664 mmHg 54%
    03:00 +17°C° 0 mm 4 mps 664 mmHg 56%
    04:00 +15°C° 0 mm 4 mps 664 mmHg 57%
    05:00 +15°C° 0 mm 4 mps 664 mmHg 59%
    06:00 +16°C° 0 mm 3 mps 664 mmHg 60%
    07:00 +18°C° 0 mm 4 mps 664 mmHg 56%
    08:00 +19°C° 0 mm 5 mps 665 mmHg 52%
    09:00 +21°C° 0 mm 5 mps 666 mmHg 48%
    10:00 +22°C° 0 mm 6 mps 666 mmHg 46%
    11:00 +23°C° 0 mm 6 mps 665 mmHg 43%
    12:00 +23°C° 0 mm 7 mps 665 mmHg 40%
    13:00 +23°C° 0 mm 6 mps 665 mmHg 39%
    14:00 +23°C° 0 mm 6 mps 664 mmHg 39%
    15:00 +23°C° 0 mm 5 mps 664 mmHg 38%
    16:00 +22°C° 0 mm 6 mps 664 mmHg 42%
    17:00 +22°C° 0 mm 6 mps 664 mmHg 45%
    18:00 +21°C° 0 mm 6 mps 663 mmHg 48%
    19:00 +20°C° 0 mm 7 mps 663 mmHg 51%
    20:00 +20°C° 0 mm 8 mps 663 mmHg 53%
    21:00 +19°C° 0 mm 9 mps 663 mmHg 55%
    22:00 +18°C° 0 mm 9 mps 663 mmHg 56%
    23:00 +18°C° 0 mm 8 mps 663 mmHg 57%

    22 October, Tuesday

    Time Temperature Precipitation Wind Pressure Humidity
    00:00 +18°C° 0 mm 7 mps 663 mmHg 58%
    01:00 +17°C° 0 mm 7 mps 662 mmHg 62%
    02:00 +17°C° 0 mm 7 mps 662 mmHg 66%
    03:00 +16°C° 0 mm 7 mps 661 mmHg 70%
    04:00 +16°C° 0 mm 7 mps 661 mmHg 73%
    05:00 +16°C° 0 mm 7 mps 661 mmHg 76%
    06:00 +15°C° 0 mm 7 mps 661 mmHg 79%
    07:00 +16°C° 0 mm 6 mps 662 mmHg 72%
    08:00 +19°C° 0 mm 6 mps 662 mmHg 65%
    09:00 +20°C° 0 mm 6 mps 663 mmHg 58%
    10:00 +20°C° 0.8 mm 6 mps 662 mmHg 56%
    11:00 +21°C° 0.8 mm 6 mps 662 mmHg 53%
    12:00 +22°C° 0.8 mm 6 mps 661 mmHg 51%
    13:00 +22°C° 1.4 mm 7 mps 661 mmHg 52%
    14:00 +22°C° 1.4 mm 8 mps 660 mmHg 53%
    15:00 +21°C° 1.4 mm 9 mps 659 mmHg 54%
    16:00 +21°C° 0.4 mm 10 mps 658 mmHg 56%
    17:00 +21°C° 0.4 mm 11 mps 658 mmHg 57%
    18:00 +19°C° 0.4 mm 13 mps 657 mmHg 59%
    19:00 +19°C° 0 mm 13 mps 657 mmHg 57%
    20:00 +19°C° 0 mm 13 mps 657 mmHg 55%
    21:00 +19°C° 0 mm 13 mps 657 mmHg 53%
    22:00 +18°C° 0 mm 12 mps 657 mmHg 51%
    23:00 +18°C° 0 mm 10 mps 656 mmHg 49%

    23 October, Wednesday

    Time Temperature Precipitation Wind Pressure Humidity
    00:00 +18°C° 0 mm 8 mps 656 mmHg 47%
    01:00 +16°C° 0 mm 7 mps 656 mmHg 51%
    02:00 +15°C° 0 mm 5 mps 655 mmHg 56%
    03:00 +14°C° 0 mm 4 mps 655 mmHg 60%
    04:00 +13°C° 0 mm 5 mps 655 mmHg 67%
    05:00 +11°C° 0 mm 6 mps 654 mmHg 75%
    06:00 +10°C° 0 mm 7 mps 654 mmHg 82%
    07:00 +10°C° 0 mm 8 mps 655 mmHg 76%
    08:00 +8°C° 0 mm 9 mps 656 mmHg 69%
    09:00 +8°C° 0 mm 9 mps 656 mmHg 63%
    10:00 +10°C° 0 mm 9 mps 657 mmHg 58%
    11:00 +11°C° 0 mm 9 mps 657 mmHg 53%
    12:00 +12°C° 0 mm 9 mps 657 mmHg 48%
    13:00 +12°C° 0 mm 9 mps 658 mmHg 44%
    14:00 +12°C° 0 mm 8 mps 658 mmHg 40%
    15:00 +13°C° 0 mm 8 mps 658 mmHg 36%
    16:00 +12°C° 0 mm 8 mps 658 mmHg 40%
    17:00 +11°C° 0 mm 7 mps 659 mmHg 43%
    18:00 +10°C° 0 mm 7 mps 659 mmHg 47%
    19:00 +10°C° 0 mm 7 mps 659 mmHg 48%
    20:00 +10°C° 0 mm 6 mps 659 mmHg 48%
    21:00 +9°C° 0 mm 5 mps 660 mmHg 49%
    22:00 +9°C° 0 mm 5 mps 660 mmHg 52%
    23:00 +9°C° 0 mm 5 mps 660 mmHg 55%

    24 October, Thursday

    Time Temperature Precipitation Wind Pressure Humidity
    00:00 +8°C° 0 mm 5 mps 660 mmHg 58%
    01:00 +8°C° 0 mm 5 mps 660 mmHg 61%
    02:00 +8°C° 0 mm 6 mps 660 mmHg 63%
    03:00 +8°C° 0 mm 6 mps 660 mmHg 66%
    04:00 +7°C° 0 mm 6 mps 660 mmHg 66%
    05:00 +7°C° 0 mm 6 mps 660 mmHg 67%
    06:00 +7°C° 0 mm 6 mps 660 mmHg 67%
    07:00 +7°C° 0 mm 8 mps 660 mmHg 59%
    08:00 +8°C° 0 mm 9 mps 660 mmHg 51%
    09:00 +9°C° 0 mm 10 mps 661 mmHg 43%
    10:00 +11°C° 0 mm 10 mps 661 mmHg 43%
    11:00 +12°C° 0 mm 10 mps 661 mmHg 42%
    12:00 +13°C° 0 mm 10 mps 662 mmHg 42%
    13:00 +13°C° 0 mm 10 mps 661 mmHg 40%
    14:00 +13°C° 0 mm 9 mps 661 mmHg 39%
    15:00 +15°C° 0 mm 9 mps 661 mmHg 38%
    16:00 +13°C° 0 mm 8 mps 661 mmHg 43%
    17:00 +12°C° 0 mm 7 mps 661 mmHg 49%
    18:00 +12°C° 0 mm 5 mps 662 mmHg 54%
    19:00 +10°C° 0 mm 5 mps 662 mmHg 57%
    20:00 +10°C° 0 mm 5 mps 662 mmHg 59%
    21:00 +9°C° 0 mm 5 mps 662 mmHg 61%
    22:00 +9°C° 0 mm 6 mps 662 mmHg 63%
    23:00 +8°C° 0 mm 7 mps 662 mmHg 65%
    Show more